[[{"header":{"parameterUnit":"m.s-1","parameterCategory":1,"la1":30.2991,"la2":30.254,"lo1":-89.0895,"lo2":-89.0444,"dy":0.0017,"dx":0.0017,"nx":28,"ny":28,"refTime":"2024-04-07T03:00:00:Z","depth":0,"parameterNumber":2,"parameterNumberName":"U-component_of_WINDS"},"data":[0,0,0,0,0,0,0,0,0,0,0,0,0,0,0,0,0,0,0,0,0,0,0,0,0,0,0,0,0,0,0,0,0,0,0,0,0,0,0,0,0,0,0,0,0,0,0,0,0,0,0,0,0,0,0,0,0,0,-2.2568,-2.2568,0,-2.2512,-2.2512,-2.2511,-2.246,-2.246,-2.2459,-2.2458,-2.2402,-2.2401,-2.24,0,0,0,0,0,0,0,0,0,0,0,0,0,-2.2632,-2.2632,-2.2568,-2.2568,-2.2567,-2.2512,-2.2512,-2.2511,-2.246,-2.246,-2.2459,-2.2458,-2.2402,-2.2401,-2.24,0,0,0,0,0,0,0,0,0,0,0,0,0,-2.2593,-2.2631,-2.2569,-2.2535,-2.2532,-2.2513,-2.2512,-2.2511,-2.246,-2.246,-2.2459,-2.2458,-2.2403,-2.2401,-2.24,-2.241,0,0,-2.2396,-2.2395,0,0,0,0,0,0,0,0,-2.2596,-2.2591,-2.2541,-2.2537,-2.2533,-2.2492,-2.2514,-2.2477,-2.2461,-2.2488,-2.2458,-2.2457,-2.2433,-2.2429,-2.2421,-2.2407,-2.2405,-2.2396,-2.2395,-2.2394,-2.2394,0,0,0,0,0,0,0,-2.2598,-2.2593,-2.2546,-2.254,-2.2536,-2.2523,-2.2517,-2.2506,-2.2466,-2.2485,-2.2481,-2.2475,-2.2431,-2.2422,-2.2419,-2.2404,-2.2396,-2.2395,-2.2394,-2.2393,-2.2395,-2.2396,0,0,0,0,0,0,-2.2606,-2.2596,-2.2548,-2.2545,-2.2563,-2.2523,-2.2515,-2.2506,-2.2466,-2.2459,-2.2476,-2.2473,-2.2425,-2.2421,-2.2417,-2.2425,-2.2394,-2.2393,-2.2392,-2.2394,-2.2396,-2.2397,0,0,0,0,0,0,-2.2608,-2.2602,-2.255,-2.2569,-2.2562,-2.2523,-2.2513,-2.2506,-2.2497,-2.2459,-2.2452,-2.2474,-2.2424,-2.2419,-2.2412,-2.2422,-2.2392,-2.2391,-2.2393,-2.2395,-2.2396,-2.2442,0,0,0,0,0,0,-2.261,-2.2603,-2.2606,-2.257,-2.2561,-2.2546,-2.2514,-2.2505,-2.2495,-2.249,-2.2456,-2.2449,-2.2423,-2.2414,-2.241,-2.242,-2.239,-2.2392,-2.2394,-2.2396,-2.2439,-2.2445,-2.2449,0,0,0,0,0,-2.2612,-2.2622,-2.2607,-2.2601,-2.2564,-2.2547,-2.2542,-2.2511,-2.2496,-2.2498,-2.2474,-2.245,-2.2422,-2.2414,-2.2409,-2.2418,-2.2392,-2.2394,-2.2396,-2.2437,-2.2444,-2.2449,0,0,0,0,0,0,-2.2662,-2.2617,-2.2599,-2.2597,-2.2576,-2.2538,-2.2541,-2.2519,-2.2502,-2.2499,-2.2461,-2.2454,-2.2451,-2.2434,-2.2426,-2.2425,-2.2403,-2.2405,-2.2437,-2.2442,-2.2447,-2.2451,-2.2389,0,0,0,0,0,-2.2672,-2.2662,-2.2623,-2.2625,-2.2616,-2.258,-2.2572,-2.255,-2.2526,-2.2517,-2.2493,-2.2471,-2.2457,-2.2449,-2.2434,-2.2437,-2.2428,-2.2441,-2.2446,-2.245,-2.2451,-2.2451,-2.2456,-2.2403,-2.2403,-2.2403,0,0,-2.2694,-2.2668,-2.2664,-2.2635,-2.2616,-2.2606,-2.2573,-2.2564,-2.2557,-2.2516,-2.2508,-2.2489,-2.2463,-2.246,-2.2458,-2.2446,-2.2464,-2.2453,-2.2456,-2.2455,-2.2453,-2.2458,-2.2463,-2.2404,-2.2404,-2.2404,0,0,-2.2729,-2.2709,-2.2708,-2.2689,-2.2661,-2.2637,-2.2637,-2.2602,-2.2588,-2.2579,-2.2548,-2.2539,-2.2516,-2.2498,-2.2486,-2.2514,-2.2491,-2.251,-2.2536,-2.2536,-2.254,-2.2543,-2.2553,-2.2557,-2.2512,-2.2512,-2.2512,0,-2.276,-2.2744,-2.271,-2.2703,-2.2691,-2.2653,-2.2652,-2.2636,-2.2604,-2.2597,-2.2584,-2.2553,-2.2533,-2.2526,-2.2533,-2.2524,-2.2523,-2.2514,-2.2542,-2.2545,-2.2548,-2.2556,-2.256,-2.2514,-2.2514,-2.2514,-2.2514,0,-2.2783,-2.2772,-2.2775,-2.2744,-2.2733,-2.2729,-2.2694,-2.2687,-2.2666,-2.2643,-2.2634,-2.2609,-2.2588,-2.2585,-2.2564,-2.2574,-2.2568,-2.2549,-2.2526,-2.2556,-2.2563,-2.2566,-2.2518,-2.2517,-2.2516,-2.2516,0,0,-2.2847,-2.2798,-2.2799,-2.2785,-2.2751,-2.2742,-2.2736,-2.2715,-2.2708,-2.2688,-2.2682,-2.2663,-2.2646,-2.2632,-2.2609,-2.2609,-2.2632,-2.259,-2.2589,-2.2599,-2.2641,-2.2655,-2.2659,-2.2617,-2.2618,-2.2618,-2.2643,0,-2.2876,-2.2862,-2.2832,-2.2828,-2.2818,-2.2782,-2.2776,-2.2755,-2.2734,-2.2722,-2.2699,-2.2686,-2.2664,-2.2656,-2.2654,-2.263,-2.264,-2.2628,-2.2611,-2.2611,-2.2618,-2.2663,-2.2677,-2.2702,-2.2645,-2.2646,-2.2646,0,-2.2908,-2.2888,-2.2884,-2.2849,-2.2844,-2.2839,-2.2817,-2.2806,-2.2781,-2.2766,-2.2751,-2.2726,-2.2717,-2.2697,-2.2685,-2.2677,-2.2668,-2.2656,-2.2656,-2.2653,-2.263,-2.266,-2.2709,-2.2713,-2.2651,-2.265,-2.265,0,-2.2954,-2.2928,-2.2921,-2.291,-2.287,-2.2867,-2.2851,-2.2824,-2.2814,-2.2794,-2.2787,-2.2768,-2.2757,-2.2742,-2.2713,-2.27,-2.2704,-2.2681,-2.2691,-2.2692,-2.2693,-2.2693,-2.2741,-2.2689,-2.2689,-2.2688,-2.2688,0,-2.2989,-2.2988,-2.2941,-2.2937,-2.2934,-2.2899,-2.2897,-2.2877,-2.2854,-2.2845,-2.2813,-2.2806,-2.2767,-2.2756,-2.2733,-2.2726,-2.2722,-2.2709,-2.2703,-2.2711,-2.2713,-2.2705,-2.2702,-2.2689,-2.2689,-2.2689,-2.2689,0,-2.3041,-2.301,-2.3,-2.2963,-2.2953,-2.2952,-2.292,-2.2915,-2.2892,-2.2882,-2.2877,-2.2841,-2.2826,-2.2795,-2.2771,-2.2755,-2.2754,-2.2743,-2.2762,-2.2758,-2.2769,-2.2769,-2.2813,-2.2817,-2.2763,-2.2764,-2.2764,0,-2.3065,-2.3063,-2.3025,-2.3016,-2.3001,-2.2988,-2.2976,-2.2942,-2.2931,-2.2902,-2.29,-2.2882,-2.2865,-2.2842,-2.2814,-2.2795,-2.2784,-2.28,-2.2781,-2.2789,-2.2783,-2.2783,-2.2783,-2.2805,-2.2806,-2.2806,-2.2807,0,-2.3111,-2.3096,-2.308,-2.3059,-2.3046,-2.3027,-2.3008,-2.3003,-2.2964,-2.2953,-2.2936,-2.2924,-2.2899,-2.2881,-2.2858,-2.2841,-2.2817,-2.2813,-2.2814,-2.2823,-2.2834,-2.2827,-2.2773,-2.2812,-2.2812,-2.2811,-2.2811,-2.2811,-2.3149,-2.3145,-2.3117,-2.3101,-2.3082,-2.3064,-2.3057,-2.3033,-2.3018,-2.2995,-2.2975,-2.296,-2.2934,-2.2901,-2.2885,-2.2873,-2.2862,-2.2864,-2.2864,-2.2865,-2.2868,-2.2836,-2.2869,-2.2869,-2.2869,-2.2868,-2.2868,0,-2.3193,-2.3173,-2.3158,-2.3131,-2.3118,-2.3096,-2.3073,-2.3064,-2.3051,-2.3028,-2.3012,-2.2993,-2.2975,-2.2946,-2.2926,-2.2921,-2.291,-2.2917,-2.2917,-2.2913,-2.288,-2.2881,-2.2927,-2.2927,-2.2927,-2.2927,-2.2927,-2.2927,-2.3214,-2.3206,-2.3187,-2.3169,-2.3149,-2.3134,-2.3122,-2.3105,-2.3087,-2.3067,-2.3052,-2.3032,-2.3007,-2.2985,-2.2967,-2.2959,-2.2953,-2.2964,-2.2952,-2.2921,-2.2916,-2.2911,-2.2911,-2.2963,-2.2963,-2.2986,-2.2986,-2.2987]},{"header":{"parameterUnit":"m.s-1","parameterCategory":1,"la1":30.2991,"la2":30.254,"lo1":-89.0895,"lo2":-89.0444,"dy":0.0017,"dx":0.0017,"nx":28,"ny":28,"refTime":"2024-04-07T03:00:00:Z","depth":0,"parameterNumber":3,"parameterNumberName":"V-component_of_WINDS"},"data":[0,0,0,0,0,0,0,0,0,0,0,0,0,0,0,0,0,0,0,0,0,0,0,0,0,0,0,0,0,0,0,0,0,0,0,0,0,0,0,0,0,0,0,0,0,0,0,0,0,0,0,0,0,0,0,0,0,0,3.8169,3.8168,0,3.8061,3.806,3.8058,3.7967,3.7966,3.7965,3.7964,3.7848,3.7845,3.7843,0,0,0,0,0,0,0,0,0,0,0,0,0,3.8292,3.829,3.8169,3.8168,3.8167,3.8061,3.806,3.8058,3.7967,3.7966,3.7964,3.7963,3.7848,3.7846,3.7843,0,0,0,0,0,0,0,0,0,0,0,0,0,3.8216,3.8289,3.8169,3.8108,3.8102,3.8061,3.8059,3.8058,3.7967,3.7966,3.7964,3.7963,3.7849,3.7846,3.7843,3.7852,0,0,3.7833,3.7831,0,0,0,0,0,0,0,0,3.8221,3.8212,3.8119,3.8113,3.8105,3.8026,3.806,3.7989,3.7967,3.8018,3.7964,3.7962,3.7908,3.79,3.7882,3.7847,3.7842,3.7833,3.7831,3.7829,3.7828,0,0,0,0,0,0,0,3.8226,3.8216,3.8126,3.8117,3.8109,3.8085,3.8072,3.8046,3.7972,3.8014,3.8007,3.7995,3.7904,3.7886,3.7879,3.784,3.7833,3.783,3.7828,3.7826,3.7806,3.7807,0,0,0,0,0,0,3.8241,3.8221,3.813,3.8123,3.8161,3.8084,3.807,3.8053,3.7972,3.7959,3.7997,3.7992,3.7892,3.7883,3.7875,3.788,3.7829,3.7826,3.7824,3.7805,3.7806,3.7808,0,0,0,0,0,0,3.8244,3.8234,3.8134,3.817,3.8155,3.8083,3.8065,3.8051,3.8033,3.796,3.7946,3.7992,3.789,3.7879,3.7859,3.7875,3.7825,3.7822,3.7803,3.7805,3.7807,3.7892,0,0,0,0,0,0,3.8248,3.8236,3.824,3.8171,3.8154,3.8122,3.8066,3.805,3.8029,3.8021,3.7952,3.7939,3.7888,3.7864,3.7856,3.787,3.7819,3.7801,3.7804,3.7807,3.7888,3.7897,3.7905,0,0,0,0,0,3.8253,3.8267,3.8241,3.823,3.8158,3.8123,3.8113,3.8056,3.803,3.8033,3.7986,3.7941,3.7875,3.7863,3.7852,3.7866,3.78,3.7803,3.7806,3.7884,3.7895,3.7905,0,0,0,0,0,0,3.8339,3.8257,3.8227,3.822,3.8179,3.8108,3.811,3.807,3.8035,3.8029,3.7958,3.7943,3.793,3.7895,3.7884,3.787,3.7831,3.7833,3.7894,3.7904,3.7913,3.7921,3.7817,0,0,0,0,0,3.8357,3.8338,3.8266,3.8267,3.8248,3.8183,3.8166,3.8125,3.808,3.8062,3.8013,3.7969,3.7938,3.7919,3.7886,3.7882,3.7865,3.7886,3.7894,3.7902,3.7904,3.7898,3.7907,3.7818,3.7818,3.7818,0,0,3.8394,3.8347,3.8339,3.8283,3.8247,3.8226,3.8169,3.815,3.8133,3.8058,3.8037,3.7999,3.7945,3.7933,3.7925,3.7904,3.7924,3.7906,3.7913,3.791,3.7902,3.7911,3.7918,3.7821,3.782,3.782,0,0,3.8452,3.8415,3.8411,3.8376,3.8323,3.8279,3.8279,3.8213,3.8186,3.8163,3.8106,3.8084,3.8033,3.7997,3.7971,3.8015,3.7972,3.8006,3.8051,3.8047,3.8054,3.8059,3.8075,3.8081,3.8008,3.8008,3.8008,0,3.8505,3.8473,3.8414,3.8398,3.8375,3.8307,3.8302,3.827,3.8208,3.8193,3.817,3.8103,3.8062,3.8041,3.8051,3.8033,3.8029,3.8014,3.8058,3.8063,3.8067,3.8081,3.8087,3.8013,3.8012,3.8012,3.8011,0,3.854,3.852,3.8522,3.8467,3.8443,3.8433,3.837,3.8353,3.8314,3.8273,3.825,3.8198,3.8154,3.8145,3.8107,3.8118,3.8106,3.8072,3.8031,3.8082,3.8093,3.8098,3.8019,3.8017,3.8016,3.8015,0,0,3.865,3.8561,3.8563,3.8537,3.8473,3.8454,3.844,3.8398,3.8385,3.8344,3.833,3.8287,3.8255,3.8226,3.8183,3.8179,3.8216,3.8144,3.8142,3.8159,3.8224,3.8251,3.8258,3.8187,3.8188,3.8189,3.8229,0,3.8697,3.867,3.8616,3.8605,3.8584,3.8519,3.8506,3.8465,3.8425,3.84,3.8355,3.8326,3.8286,3.8268,3.8261,3.8213,3.8228,3.8209,3.8172,3.8171,3.8188,3.8264,3.8293,3.8333,3.8233,3.8234,3.8234,0,3.8749,3.8714,3.8702,3.8639,3.8628,3.8619,3.8575,3.8553,3.8503,3.8474,3.8443,3.8396,3.8375,3.8338,3.8308,3.8297,3.8277,3.8251,3.8251,3.8246,3.8206,3.8261,3.8345,3.8351,3.8241,3.824,3.824,0,3.883,3.878,3.8766,3.8745,3.8671,3.8666,3.8634,3.8584,3.8562,3.8523,3.8508,3.8467,3.8445,3.8414,3.8355,3.8334,3.8332,3.829,3.8306,3.8308,3.8309,3.831,3.8391,3.8297,3.8296,3.8296,3.8296,0,3.8889,3.8884,3.8802,3.8793,3.8785,3.8722,3.8715,3.8677,3.8633,3.8614,3.8554,3.8538,3.8462,3.8437,3.8391,3.8372,3.8362,3.8338,3.8325,3.8343,3.8347,3.833,3.8326,3.8298,3.8298,3.8297,3.8297,0,3.8979,3.8923,3.8904,3.8836,3.8819,3.8816,3.8756,3.8745,3.8701,3.8679,3.867,3.8601,3.8568,3.8507,3.8455,3.8424,3.8416,3.8394,3.8433,3.8426,3.8446,3.8445,3.852,3.8526,3.8428,3.8429,3.843,0,3.902,3.9015,3.8947,3.8932,3.8903,3.8878,3.8856,3.8793,3.8772,3.8715,3.871,3.8672,3.8639,3.8588,3.8532,3.8492,3.8469,3.8498,3.8463,3.8481,3.847,3.8471,3.847,3.8507,3.8508,3.8509,3.851,0,3.91,3.9073,3.9044,3.9006,3.8982,3.8948,3.8911,3.8901,3.8828,3.8807,3.8774,3.8748,3.8696,3.8659,3.8611,3.8576,3.8531,3.8522,3.8523,3.8542,3.8564,3.8552,3.8455,3.852,3.8519,3.8519,3.8518,3.8518,3.9166,3.9159,3.911,3.908,3.9046,3.9013,3.8999,3.8954,3.8925,3.888,3.8843,3.8812,3.876,3.8692,3.866,3.8633,3.8612,3.8614,3.8615,3.8616,3.8624,3.8569,3.8624,3.8623,3.8623,3.8623,3.8622,0,3.9243,3.9208,3.9182,3.9133,3.9109,3.907,3.9026,3.9008,3.8983,3.894,3.8908,3.8869,3.8832,3.8774,3.8732,3.8722,3.87,3.8713,3.8713,3.8706,3.8645,3.8648,3.8731,3.8731,3.8731,3.8731,3.8731,3.8731,3.928,3.9266,3.9233,3.92,3.9164,3.9135,3.9114,3.9082,3.9048,3.9007,3.8977,3.894,3.889,3.8844,3.8808,3.8791,3.8779,3.8799,3.8776,3.872,3.871,3.87,3.8703,3.8796,3.8796,3.8838,3.8839,3.8839]}]]